QPF
0.00 0.00 0.00 0.00 0.00 0.00 0.00 0.00 0.00 0.00 0.00 0.00 0.00 0.00 0.00 0.00 0.00 0.00 0.00 0.00 0.00 0.00
0.00 0.00 0.00 0.00 0.00 0.00 0.00 0.00 0.00 0.00 0.00 0.00 0.00 0.00 0.00 0.00 0.00 0.00 0.00 0.00 0.00 0.00
0.00 0.00 0.00 0.00 0.00 0.00 0.00 0.00 0.00 0.00 0.00 0.00 0.00 0.00 0.00 0.00 0.00 0.00 0.00 0.00 0.00 0.00
0.00 0.00 0.00 0.00 0.00 0.00 0.00 0.00 0.00 0.00 0.00 0.00 0.00 0.00 0.00 0.00 0.00 0.00 0.00 0.00 0.00 0.00
0.01 0.02 0.03 0.03 0.02 0.01 0.01 0.02 0.01 0.00 0.00 0.00 0.00 0.00 0.00 0.00 0.00 0.00 0.00 0.00 0.00 0.00
0.03 0.03 0.04 0.04 0.03 0.04 0.04 0.02 0.00 0.00 0.00 0.00 0.00 0.00 0.00 0.00 0.00 0.00 0.00 0.00 0.00 0.00
0.12 0.12 0.11 0.10 0.08 0.04 0.01 0.00 0.00 0.00 0.00 0.00 0.00 0.00 0.00 0.00 0.00 0.00 0.00 0.00 0.00 0.00
0.15 0.13 0.10 0.05 0.02 0.00 0.00 0.00 0.00 0.00 0.00 0.00 0.00 0.00 0.00 0.00 0.00 0.00 0.00 0.00 0.00 0.00
0.08 0.06 0.04 0.01 0.00 0.00 0.00 0.00 0.00 0.00 0.00 0.00 0.00 0.00 0.00 0.00 0.00 0.00 0.00 0.00 0.00 0.00
0.05 0.02 0.00 0.00 0.00 0.00 0.00 0.00 0.00 0.00 0.00 0.00 0.00 0.00 0.00 0.00 0.00 0.00 0.00 0.00 0.00 0.00
0.00 0.00 0.00 0.01 0.00 0.00 0.00 0.00 0.00 0.00 0.00 0.00 0.00 0.00 0.00 0.00 0.00 0.00 0.00 0.00 0.00 0.00
0.01 0.01 0.04 0.05 0.04 0.01 0.00 0.00 0.00 0.00 0.00 0.00 0.00 0.00 0.00 0.00 0.00 0.00 0.00 0.00 0.00 0.00
0.05 0.07 0.07 0.05 0.02 0.00 0.00 0.00 0.00 0.00 0.00 0.00 0.00 0.00 0.00 0.00 0.00 0.00 0.00 0.00 0.00 0.00
0.14 0.10 0.07 0.03 0.00 0.00 0.00 0.00 0.00 0.00 0.00 0.00 0.00 0.00 0.00 0.00 0.00 0.00 0.00 0.00 0.00 0.00
MSLP
1014.05 1014.91 1015.67 1016.41 1018.09 1018.45 1019.22 1020.27 1020.75 1020.83 1021.40 1022.36 1022.51 1022.33 1022.44 1022.64 1022.35 1022.68 1022.50 1022.60 1022.64 1022.55
1014.56 1015.41 1016.27 1017.14 1018.08 1019.15 1019.87 1021.04 1021.67 1021.45 1022.34 1023.01 1022.63 1022.70 1022.43 1022.67 1022.57 1022.83 1022.71 1023.24 1023.20 1022.98
1015.04 1016.01 1016.79 1017.68 1018.72 1019.82 1020.71 1021.39 1021.65 1022.39 1023.07 1023.45 1023.04 1022.89 1022.46 1022.82 1022.99 1023.32 1023.31 1023.49 1023.51 1023.40
1015.80 1016.76 1017.55 1018.30 1019.32 1020.51 1021.41 1021.33 1022.07 1023.23 1023.54 1023.23 1023.43 1023.33 1023.02 1023.08 1023.52 1023.65 1023.97 1024.41 1023.98 1024.03
1016.12 1017.15 1018.23 1019.27 1020.11 1021.03 1021.83 1022.40 1022.73 1023.36 1023.54 1023.52 1023.73 1023.75 1023.32 1023.55 1024.03 1024.11 1024.57 1024.82 1024.54 1024.57
1016.73 1017.60 1018.66 1019.48 1020.69 1021.64 1021.92 1022.45 1023.04 1023.09 1023.74 1023.67 1023.78 1024.32 1024.07 1024.38 1024.51 1024.79 1025.00 1024.98 1024.92 1024.83
1017.23 1017.99 1018.89 1020.05 1020.80 1021.69 1022.13 1022.70 1022.95 1023.51 1023.85 1023.98 1024.09 1024.41 1024.56 1024.71 1024.97 1025.24 1025.36 1025.36 1025.31 1025.37
1017.72 1018.62 1019.62 1020.32 1021.18 1021.71 1022.19 1022.65 1023.29 1023.81 1024.01 1024.06 1024.39 1024.93 1025.00 1024.79 1024.75 1024.98 1025.36 1025.76 1025.89 1025.92
1017.88 1019.00 1019.69 1020.29 1021.18 1021.86 1022.22 1023.00 1023.71 1023.66 1024.20 1024.40 1025.43 1026.34 1025.90 1024.96 1024.99 1025.11 1025.20 1025.53 1026.14 1026.00
1018.14 1018.65 1019.34 1020.29 1021.19 1021.59 1022.51 1023.22 1023.56 1023.92 1024.30 1024.72 1025.80 1026.31 1026.46 1026.21 1025.23 1025.34 1025.62 1025.96 1025.87 1026.10
1018.02 1018.66 1019.56 1020.42 1020.76 1021.61 1022.86 1023.06 1023.52 1024.23 1024.42 1024.97 1026.14 1026.71 1026.93 1026.65 1025.43 1025.87 1025.94 1026.20 1026.38 1026.78
1017.57 1018.57 1019.73 1020.77 1021.67 1022.28 1022.62 1023.20 1023.58 1024.29 1024.58 1025.13 1026.16 1026.87 1026.98 1026.29 1025.70 1026.13 1026.08 1026.47 1027.04 1027.58
1017.70 1018.83 1019.84 1020.83 1021.64 1022.41 1022.95 1023.15 1024.09 1024.30 1024.85 1025.45 1026.20 1027.16 1026.89 1026.48 1026.32 1026.87 1026.94 1027.30 1027.56 1028.59
1017.92 1018.91 1019.98 1020.94 1021.77 1022.51 1023.12 1023.35 1023.92 1024.82 1025.33 1025.72 1025.50 1026.50 1026.93 1027.19 1027.26 1027.25 1027.49 1027.70 1027.71 1027.40
Thickness
5546 5538 5532 5526 5513 5511 5505 5495 5491 5491 5487 5479 5479 5481 5478 5475 5477 5472 5473 5472 5472 5472
5525 5518 5511 5507 5501 5493 5487 5476 5470 5472 5466 5462 5466 5464 5464 5462 5463 5461 5462 5456 5456 5456
5507 5500 5495 5490 5483 5475 5467 5460 5459 5453 5448 5446 5448 5449 5452 5449 5446 5444 5445 5443 5442 5440
5487 5482 5477 5473 5466 5457 5448 5448 5442 5435 5432 5434 5432 5434 5436 5437 5432 5431 5428 5422 5425 5421
5473 5465 5458 5453 5444 5436 5431 5428 5425 5419 5419 5420 5418 5419 5424 5423 5418 5417 5411 5406 5407 5404
5454 5448 5442 5436 5427 5421 5416 5413 5408 5409 5405 5406 5408 5404 5407 5404 5403 5399 5396 5395 5393 5390
5435 5432 5427 5417 5411 5404 5403 5399 5399 5395 5394 5394 5396 5393 5392 5391 5388 5384 5381 5378 5376 5372
5419 5413 5405 5401 5396 5394 5393 5390 5385 5383 5382 5383 5383 5379 5380 5381 5379 5375 5370 5363 5359 5356
5407 5400 5397 5394 5389 5385 5383 5376 5372 5376 5372 5372 5365 5360 5363 5366 5365 5362 5360 5354 5346 5344
5397 5395 5393 5387 5381 5379 5371 5366 5365 5363 5361 5359 5350 5348 5347 5349 5352 5348 5343 5339 5337 5330
5392 5389 5383 5377 5375 5370 5359 5358 5356 5351 5351 5347 5338 5334 5333 5334 5338 5332 5330 5325 5321 5315
5384 5380 5372 5363 5357 5354 5352 5348 5347 5341 5341 5336 5328 5323 5322 5324 5326 5319 5318 5313 5305 5296
5376 5367 5360 5353 5348 5343 5340 5341 5333 5332 5328 5323 5317 5310 5313 5312 5311 5304 5301 5294 5288 5281
5363 5358 5349 5343 5337 5333 5329 5329 5327 5319 5315 5311 5313 5305 5301 5298 5294 5292 5286 5280 5278 5279